Weather History for Worland, WY

Change the Weather History Date:

Saturday, July 27, 2013

  Actual Average Record
Temperature  
Mean Temperature 75 °F 73 °F  
Max Temperature 86 °F 90 °F 104 °F (1975)
Min Temperature 63 °F 56 °F 44 °F (1993)
Degree Days  
Heating Degree Days 0 0  
Month to date heating degree days 0 10  
Since 1 June heating degree days 45 103  
Since 1 July heating degree days 0 10  
Cooling Degree Days 10 8  
Month to date cooling degree days 311 196  
Year to date cooling degree days 461 292  
Since 1 June cooling degree days 444 280  
Growing Degree Days 26 (Base 50)    
Moisture  
Dew Point 46 °F    
Average Humidity 38    
Maximum Humidity 57    
Minimum Humidity 18    
Precipitation  
Precipitation 0.00 in 0.03 in 0.03 in (2012)
Month to date precipitation 0.20 0.62  
Year to date precipitation 2.98 4.93  
Sea Level Pressure  
Sea Level Pressure 29.86 in    
Wind  
Wind Speed 7 mph (SSW)    
Max Wind Speed 26 mph    
Max Gust Speed 35 mph    
Visibility 10 miles    
Events      
T = Trace of Precipitation, MM = Missing Value Source: NWS Daily Summary

Daily Weather History Graph

Daily Weather History Graph

Search for Another Location

Airport:

Trip Planner

Search our weather history database for the weather conditions in past years. The results will help you decide how hot, cold, wet, or windy it might be!

Date:

Astronomy

Jul. 27, 2013 Rise Set
Actual Time 5:55 AM MDT 8:40 PM MDT
Civil Twilight 5:21 AM MDT 9:14 PM MDT
Nautical Twilight 4:39 AM MDT 9:56 PM MDT
Astronomical Twilight 3:50 AM MDT 10:45 PM MDT
Moon 11:14 PM MDT (7/27) 11:53 AM MDT (7/27)
Length of Visible Light 15h 52m
Length of Day
14h 45m
Waning Gibbous, 70% of the Moon is Illuminated
Jul 27
Waning Gibbous
Jul 29
Last Quarter
Aug 6
New
Aug 14
First Quarter
Aug 20
Full

Hourly Weather History & Observations

Time (MDT) Temp. Dew Point Humidity Pressure Visibility Wind Dir Wind Speed Gust Speed Precip Events Conditions
12:53 AM 75.0 °F 51.1 °F 43% 29.91 in 10.0 mi SE 12.7 mph - N/A   Clear
1:53 AM 69.1 °F 53.1 °F 57% 29.92 in 10.0 mi WNW 3.5 mph - N/A   Clear
2:53 AM 68.0 °F 48.9 °F 50% 29.89 in 10.0 mi SSE 5.8 mph - N/A   Clear
3:53 AM 66.0 °F 46.0 °F 48% 29.90 in 10.0 mi South 5.8 mph - N/A   Clear
4:53 AM 66.9 °F 46.0 °F 47% 29.90 in 10.0 mi South 4.6 mph - N/A   Partly Cloudy
5:53 AM 66.9 °F 46.0 °F 47% 29.88 in 10.0 mi South 8.1 mph - N/A   Partly Cloudy
6:53 AM 68.0 °F 46.9 °F 47% 29.91 in 10.0 mi Calm Calm - N/A   Clear
7:53 AM 70.0 °F 48.9 °F 47% 29.91 in 10.0 mi Calm Calm - N/A   Clear
8:53 AM 72.0 °F 48.9 °F 44% 29.92 in 10.0 mi North 4.6 mph - N/A   Clear
9:53 AM 77.0 °F 50.0 °F 39% 29.91 in 10.0 mi North 4.6 mph - N/A   Clear
10:53 AM 79.0 °F 50.0 °F 36% 29.88 in 10.0 mi West 3.5 mph - N/A   Clear
11:53 AM 84.0 °F 48.9 °F 29% 29.86 in 10.0 mi NNE 5.8 mph - N/A   Clear
12:53 PM 84.9 °F 48.0 °F 28% 29.83 in 10.0 mi NNW 4.6 mph - N/A   Clear
1:53 PM 84.9 °F 48.0 °F 28% 29.83 in 10.0 mi WSW 4.6 mph - N/A   Clear
2:53 PM 86.0 °F 48.9 °F 28% 29.83 in 10.0 mi West 4.6 mph - N/A   Clear
3:53 PM 84.0 °F 46.9 °F 27% 29.81 in 10.0 mi WSW 9.2 mph - N/A   Clear
4:53 PM 81.0 °F 42.1 °F 25% 29.82 in 10.0 mi WSW 12.7 mph 19.6 mph N/A   Mostly Cloudy
5:53 PM 82.0 °F 35.1 °F 18% 29.81 in 10.0 mi SSE 16.1 mph - N/A   Mostly Cloudy
6:53 PM 81.0 °F 37.9 °F 21% 29.79 in 10.0 mi South 15.0 mph - N/A   Overcast
7:53 PM 81.0 °F 36.0 °F 20% 29.80 in 10.0 mi South 11.5 mph - N/A   Partly Cloudy
8:53 PM 78.1 °F 39.0 °F 25% 29.81 in 10.0 mi South 11.5 mph - N/A   Clear
9:53 PM 73.9 °F 45.0 °F 35% 29.82 in 10.0 mi SSW 10.4 mph - N/A   Mostly Cloudy
10:53 PM 73.0 °F 45.0 °F 37% 29.81 in 10.0 mi South 5.8 mph - N/A   Partly Cloudy
11:53 PM 69.1 °F 45.0 °F 42% 29.81 in 10.0 mi Calm Calm - N/A   Clear